Regional Weather Roundup
Issued by NWS

Home | Current Version | Previous Version | Text Only | Print | Product List | Glossary Off
Versions: 1 2 3 4 5 6 7 8 9 10 11 12 13 14 15 16 17 18 19 20 21 22 23 24 25 26 27 28 29 30 31 32 33 34 35 36 37 38 39 40 41 42 43 44 45 46 47 48 49 50

000
ASUS43 KLSX 100207
RWRMO

WEATHER SUMMARY FOR MISSOURI
NATIONAL WEATHER SERVICE SPRINGFIELD MO
900 PM CDT WED JUL 09 2014

NOTE: "FAIR" INDICATES FEW OR NO CLOUDS BELOW 12,000 FEET WITH NO
       SIGNIFICANT WEATHER AND/OR OBSTRUCTIONS TO VISIBILITY.
       CURRENT SKY AND/OR WEATHER CONDITIONS ARE NOT AVAILABLE FOR
       CHILLICOTHE AND FARMINGTON.

MOZ001>031-035>038-043-044-053-054-100300-
...NORTHERN AND WESTERN MISSOURI...

CITY           SKY/WX    TMP DP  RH WIND       PRES   REMARKS
KANSAS CTY INT MOCLDY    76  59  55 E8        30.03R
KANSAS C DTWN  PTCLDY    78  60  53 E9        30.01R
LEE`S SUMMIT   PTCLDY    72  62  71 E5        30.04R
ST JOSEPH      PTCLDY    75  60  59 E5        30.02S
CHILLICOTHE      N/A     70  63  78 CALM      30.05R
KIRKSVILLE     PTCLDY    66  62  87 CALM      30.05R

$$
MOZ066>068-077>081-088>096-101>105-100300-
...SOUTHWEST MISSOURI...

CITY           SKY/WX    TMP DP  RH WIND       PRES   REMARKS
SPRINGFIELD    CLEAR     73  63  70 CALM      30.04R
JOPLIN         CLEAR     74  60  61 NE5       30.02S

$$
MOZ032>034-039>042-045>050-055>058-069>072-100300-
...CENTRAL MISSOURI...

CITY           SKY/WX    TMP DP  RH WIND       PRES   REMARKS
COLUMBIA       CLEAR     71  59  65 N5        30.04R
JEFFERSON CITY CLEAR     72  65  78 CALM      30.01S
ROLLA            N/A    N/A N/A N/A MISG      30.02S
SEDALIA        CLEAR     73  62  68 NE3       30.05R
WHITEMAN AFB   CLEAR     71  59  66 E2        30.03R
OSAGE BEACH    CLEAR     70  63  78 N5        30.03R

$$
MOZ051-052-059>065-100300-
...EAST CENTRAL MISSOURI...

CITY           SKY/WX    TMP DP  RH WIND       PRES   REMARKS
ST LOUIS INTL  PTCLDY    74  58  57 N6        30.02R
SPIRIT OF STL  CLEAR     75  56  51 CALM      30.01R
ST CHARLES     CLEAR     70  60  70 N5        30.01R

$$
MOZ072>076-082>087-097>100-106>115-100300-
...SOUTH CENTRAL AND SOUTHEAST MISSOURI...

CITY           SKY/WX    TMP DP  RH WIND       PRES   REMARKS
CAPE GIRARDEAU CLEAR     76  68  76 CALM      29.99R
FARMINGTON     MOCLDY    75  61  60 N6        30.04S
POPLAR BLUFF   CLEAR     72  67  84 CALM      29.99R
WEST PLAINS    CLEAR     71  64  78 CALM      30.05R

$$


USA.gov is the U.S. government's official web portal to all federal, state and local government web resources and services.